DW9813 Weather Reports


Display with metric or nautical units.
time (UTC)temp
F
wind
direction
speed
MPH
gust
MPH
rain 1hr
in
rain 24hr
in
rain mn
in
humidity
%
barometer
mb
20260507043045 48 0 0.0 0.0 0.00 0.00 0.00 87 1019.2
20260507042538 48 0 0.0 0.0 0.00 0.00 0.00 86 1019.3
20260507042037 48 0 0.0 0.0 0.00 0.00 0.00 86 1019.1
20260507041547 48 0 0.0 0.0 0.00 0.00 0.00 86 1018.9
20260507041038 49 0 0.0 0.0 0.00 0.00 0.00 85 1019.0
20260507040538 49 0 0.0 0.0 0.00 0.00 0.00 85 1019.1
20260507040046 49 0 0.0 0.0 0.00 0.00 0.00 85 1019.1
20260507035538 49 0 0.0 0.0 0.00 0.00 0.00 85 1019.1
20260507035037 49 0 0.0 0.0 0.00 0.00 0.00 85 1019.1
20260507034551 50 0 0.0 0.0 0.00 0.00 0.00 85 1018.9
20260507034038 50 0 0.0 0.0 0.00 0.00 0.00 84 1018.8
20260507033538 50 0 0.0 0.0 0.00 0.00 0.00 84 1018.9
20260507033049 50 0 0.0 0.0 0.00 0.00 0.00 83 1018.7
20260507032539 50 0 0.0 2.0 0.00 0.00 0.00 83 1018.7
20260507032038 51 0 0.0 2.0 0.00 0.00 0.00 83 1018.7
20260507031551 51 0 0.0 2.0 0.00 0.00 0.00 82 1018.8
20260507031040 51 0 0.0 3.0 0.00 0.00 0.00 82 1018.6
20260507030537 51 290 1.0 3.0 0.00 0.00 0.00 81 1018.6
20260507030047 51 0 0.0 0.0 0.00 0.00 0.00 79 1018.5
20260507025537 52 0 0.0 0.0 0.00 0.00 0.00 78 1018.5
20260507025038 52 0 0.0 0.0 0.00 0.00 0.00 78 1018.4
20260507024544 52 0 0.0 0.0 0.00 0.00 0.00 77 1018.4
20260507024038 53 0 0.0 0.0 0.00 0.00 0.00 75 1018.3
20260507023537 53 0 0.0 0.0 0.00 0.00 0.00 75 1018.2
20260507023051 53 0 0.0 0.0 0.00 0.00 0.00 75 1018.2
20260507022537 54 0 0.0 0.0 0.00 0.00 0.00 74 1018.1
20260507022039 54 0 0.0 0.0 0.00 0.00 0.00 73 1018.0
20260507021545 54 0 0.0 0.0 0.00 0.00 0.00 72 1018.1
20260507021037 55 0 0.0 0.0 0.00 0.00 0.00 72 1018.0
20260507020538 55 0 0.0 0.0 0.00 0.00 0.00 70 1017.9
20260507020049 56 0 0.0 0.0 0.00 0.00 0.00 70 1017.7
20260507015537 56 0 0.0 0.0 0.00 0.00 0.00 68 1017.7
20260507015038 56 0 0.0 0.0 0.00 0.00 0.00 68 1017.7
20260507014554 57 0 0.0 0.0 0.00 0.00 0.00 67 1017.5
20260507014038 57 0 0.0 0.0 0.00 0.00 0.00 66 1017.5
20260507013538 58 0 0.0 1.0 0.00 0.00 0.00 65 1017.4
20260507013053 58 0 0.0 1.0 0.00 0.00 0.00 64 1017.4
20260507012537 58 0 0.0 1.0 0.00 0.00 0.00 63 1017.4
20260507012038 59 0 0.0 1.0 0.00 0.00 0.00 62 1017.4
20260507011551 59 0 0.0 1.0 0.00 0.00 0.00 62 1017.3
20260507011038 59 0 0.0 1.0 0.00 0.00 0.00 59 1017.4
20260507010537 60 0 0.0 1.0 0.00 0.00 0.00 60 1017.2
20260507005539 60 0 0.0 3.0 0.00 0.00 0.00 59 1017.1
20260507005038 61 0 0.0 3.0 0.00 0.00 0.00 58 1017.1
20260507004601 61 0 0.0 5.0 0.00 0.00 0.00 57 1017.1
20260507004037 61 60 1.0 6.0 0.00 0.00 0.00 56 1017.1
20260507003537 62 0 1.0 6.0 0.00 0.00 0.00 55 1017.1
20260507003048 62 348 1.0 5.0 0.00 0.00 0.00 56 1017.1
20260507002538 62 28 1.0 5.0 0.00 0.00 0.00 56 1017.1
20260507002038 61 0 0.0 5.0 0.00 0.00 0.00 59 1017.0
20260507001556 61 344 1.0 5.0 0.00 0.00 0.00 56 1017.0
20260507001037 61 346 2.0 5.0 0.00 0.00 0.00 57 1016.9
20260507000538 61 329 1.0 6.0 0.00 0.00 0.00 57 1017.0
20260507000054 61 351 1.0 8.0 0.00 0.00 0.00 59 1016.9
20260506235539 61 360 3.0 8.0 0.00 0.00 0.00 58 1017.0
20260506235037 61 360 2.0 9.0 0.00 0.00 0.00 58 1016.9
20260506234544 61 342 3.0 9.0 0.00 0.00 0.00 59 1016.9
20260506234040 61 23 3.0 6.0 0.00 0.00 0.00 58 1016.8
20260506233540 61 337 2.0 6.0 0.00 0.00 0.00 58 1016.8
20260506233043 61 338 3.0 9.0 0.00 0.00 0.00 58 1016.9
20260506232537 61 315 2.0 10.0 0.00 0.00 0.00 57 1016.9
20260506232037 61 13 2.0 10.0 0.00 0.00 0.00 58 1016.8
20260506231542 61 11 2.0 12.0 0.00 0.00 0.00 59 1016.9
20260506231036 61 304 4.0 12.0 0.00 0.00 0.00 58 1016.8
20260506230537 61 350 2.0 7.0 0.00 0.00 0.00 58 1016.8
20260506230049 61 35 3.0 7.0 0.00 0.00 0.00 58 1016.8
20260506225541 61 329 2.0 6.0 0.00 0.00 0.00 60 1016.7
20260506225037 61 10 2.0 11.0 0.00 0.00 0.00 58 1016.8
20260506224546 61 30 4.0 11.0 0.00 0.00 0.00 57 1016.7
20260506224039 61 331 6.0 10.0 0.00 0.00 0.00 57 1016.7
20260506223537 61 331 3.0 9.0 0.00 0.00 0.00 57 1016.7
20260506223051 61 348 4.0 10.0 0.00 0.00 0.00 57 1016.4
20260506222538 62 348 4.0 10.0 0.00 0.00 0.00 56 1016.4
20260506222038 62 13 5.0 10.0 0.00 0.00 0.00 55 1016.2
20260506221543 62 333 2.0 9.0 0.00 0.00 0.00 56 1016.2
20260506221037 62 348 2.0 9.0 0.00 0.00 0.00 55 1016.0
20260506220537 62 331 3.0 11.0 0.00 0.00 0.00 56 1015.8
20260506220048 63 346 3.0 11.0 0.00 0.00 0.00 55 1015.7
20260506215540 63 360 5.0 9.0 0.00 0.00 0.00 54 1015.7
20260506215041 63 313 4.0 8.0 0.00 0.00 0.00 56 1015.8
20260506214549 63 302 1.0 12.0 0.00 0.00 0.00 59 1015.7
20260506214038 62 338 2.0 12.0 0.00 0.00 0.00 60 1015.7
20260506213539 63 360 6.0 12.0 0.00 0.00 0.00 55 1015.7
20260506213047 63 347 5.0 14.0 0.00 0.00 0.00 56 1015.6
20260506212538 63 337 5.0 14.0 0.00 0.00 0.00 56 1015.6
20260506212038 63 325 6.0 17.0 0.00 0.00 0.00 58 1015.6
20260506211600 63 338 7.0 17.0 0.00 0.00 0.00 57 1015.3
20260506211040 63 313 7.0 13.0 0.00 0.00 0.00 56 1015.4
20260506210537 63 344 6.0 13.0 0.00 0.00 0.00 56 1015.5
20260506210049 63 34 7.0 13.0 0.00 0.00 0.00 57 1015.5
20260506205538 63 332 5.0 16.0 0.00 0.00 0.00 58 1015.8
20260506205037 63 342 7.0 16.0 0.00 0.00 0.00 59 1015.8
20260506204552 63 309 7.0 16.0 0.00 0.00 0.00 58 1015.7
20260506204040 63 346 6.0 14.0 0.00 0.00 0.00 59 1015.7
20260506203544 63 17 3.0 14.0 0.00 0.00 0.00 58 1016.0
20260506203043 62 296 5.0 13.0 0.00 0.00 0.00 57 1016.2
20260506202537 62 360 4.0 11.0 0.00 0.00 0.00 58 1016.3
20260506202038 62 309 3.0 11.0 0.00 0.00 0.00 58 1016.5
20260506201549 62 89 2.0 13.0 0.00 0.00 0.00 57 1016.6
20260506201037 62 90 5.0 13.0 0.00 0.00 0.00 56 1016.6
20260506200543 62 113 4.0 17.0 0.00 0.00 0.00 60 1016.5
20260506200055 61 121 5.0 17.0 0.00 0.00 0.00 61 1016.5
20260506195538 61 67 7.0 17.0 0.00 0.00 0.00 58 1016.5
20260506195040 60 14 6.0 12.0 0.00 0.00 0.00 58 1016.5
20260506194551 60 78 2.0 9.0 0.00 0.00 0.00 61 1017.0
20260506194041 59 53 3.0 8.0 0.00 0.00 0.00 59 1017.3
20260506193541 59 9 3.0 9.0 0.00 0.00 0.00 59 1017.1
20260506193053 59 97 2.0 9.0 0.00 0.00 0.00 62 1016.9
20260506192537 59 84 2.0 9.0 0.00 0.00 0.00 61 1016.9
20260506192044 59 112 3.0 9.0 0.00 0.00 0.00 61 1017.3
20260506191548 59 360 4.0 10.0 0.00 0.00 0.00 62 1017.5
20260506191040 59 334 3.0 10.0 0.00 0.00 0.00 61 1017.6
20260506190540 59 15 3.0 12.0 0.00 0.00 0.00 61 1017.6
20260506190043 58 38 4.0 12.0 0.00 0.00 0.00 62 1017.6
20260506185537 58 338 2.0 9.0 0.00 0.00 0.00 64 1017.7
20260506185037 58 72 3.0 9.0 0.00 0.00 0.00 62 1017.8
20260506184553 58 12 3.0 8.0 0.00 0.00 0.00 63 1017.7
20260506184037 57 9 1.0 10.0 0.00 0.00 0.00 65 1017.7
20260506183537 57 40 3.0 14.0 0.00 0.00 0.00 65 1017.7
20260506183052 57 350 4.0 14.0 0.00 0.00 0.00 65 1017.9
20260506182539 56 360 6.0 14.0 0.00 0.00 0.00 65 1017.9
20260506182041 56 352 3.0 10.0 0.00 0.00 0.00 66 1018.0
20260506181555 56 344 3.0 13.0 0.00 0.00 0.00 68 1017.8
20260506181041 56 323 3.0 13.0 0.00 0.00 0.00 68 1018.0
20260506180541 55 340 7.0 13.0 0.00 0.00 0.00 68 1018.4
20260506180104 55 352 5.0 12.0 0.00 0.00 0.00 68 1018.1
20260506175538 55 15 5.0 12.0 0.00 0.00 0.00 69 1018.1
20260506175037 55 331 6.0 13.0 0.00 0.00 0.00 68 1018.3
20260506174548 55 337 6.0 13.0 0.00 0.00 0.00 68 1018.2
20260506174040 55 9 6.0 12.0 0.00 0.00 0.00 68 1018.5
20260506173537 55 323 6.0 13.0 0.00 0.00 0.00 68 1018.5
20260506173119 55 298 5.0 13.0 0.00 0.00 0.00 69 1018.4
20260506172537 55 348 7.0 15.0 0.00 0.00 0.00 70 1018.5
20260506172037 55 352 7.0 15.0 0.00 0.00 0.00 69 1018.3
20260506171547 55 341 5.0 11.0 0.00 0.00 0.00 68 1018.6
20260506171040 55 339 5.0 11.0 0.00 0.00 0.00 70 1019.0
20260506170539 55 334 3.0 7.0 0.00 0.00 0.00 71 1019.0
20260506170059 55 329 2.0 7.0 0.00 0.00 0.00 71 1019.2
20260506165541 55 336 4.0 7.0 0.00 0.00 0.00 68 1019.4
20260506165038 55 12 1.0 4.0 0.00 0.00 0.00 68 1019.4
20260506164549 55 325 2.0 6.0 0.00 0.00 0.00 67 1019.6
20260506164040 55 344 2.0 6.0 0.00 0.00 0.00 68 1019.4
20260506163539 55 0 2.0 9.0 0.00 0.00 0.00 68 1019.4
20260506163059 55 329 2.0 10.0 0.00 0.00 0.00 69 1019.4
20260506162536 55 5 3.0 10.0 0.00 0.00 0.00 69 1018.9
20260506162041 55 360 4.0 10.0 0.00 0.00 0.00 68 1018.7
20260506161555 55 325 4.0 10.0 0.00 0.00 0.00 68 1018.3
20260506161040 55 51 3.0 10.0 0.00 0.00 0.00 68 1018.5
20260506160537 55 81 2.0 10.0 0.00 0.00 0.00 68 1018.4
20260506160057 54 98 1.0 7.0 0.00 0.00 0.00 69 1018.3
20260506155541 54 9 2.0 10.0 0.00 0.00 0.00 69 1018.3
20260506155037 54 43 1.0 10.0 0.00 0.00 0.00 70 1018.2
20260506154547 54 34 2.0 10.0 0.00 0.00 0.00 68 1018.0
20260506154038 54 24 2.0 12.0 0.00 0.00 0.00 69 1017.9
20260506153536 54 49 3.0 12.0 0.00 0.00 0.00 69 1018.0
20260506153046 54 350 3.0 10.0 0.00 0.00 0.00 69 1017.9
20260506152538 54 79 3.0 11.0 0.00 0.00 0.00 69 1017.6
20260506152039 54 335 4.0 12.0 0.00 0.00 0.00 70 1017.5
20260506151552 54 82 5.0 12.0 0.00 0.00 0.00 70 1017.7
20260506151036 53 25 4.0 10.0 0.00 0.00 0.00 70 1017.7
20260506150537 53 62 3.0 14.0 0.00 0.00 0.00 71 1017.6
20260506150057 53 346 4.0 14.0 0.00 0.00 0.00 70 1017.6
20260506145539 52 302 2.0 13.0 0.00 0.00 0.00 72 1017.3
20260506145039 52 74 4.0 13.0 0.00 0.00 0.00 72 1017.3
20260506144600 52 74 5.0 15.0 0.00 0.00 0.00 72 1017.5
20260506144040 52 83 4.0 15.0 0.00 0.00 0.00 72 1017.6
20260506143540 52 59 4.0 15.0 0.00 0.00 0.00 73 1017.6
20260506143050 52 318 4.0 15.0 0.00 0.00 0.00 73 1017.5
20260506142541 51 294 6.0 15.0 0.00 0.00 0.00 75 1017.6
20260506142040 51 319 3.0 12.0 0.00 0.00 0.00 75 1017.4
20260506141546 51 321 4.0 12.0 0.00 0.00 0.00 74 1017.3
20260506141037 51 349 5.0 12.0 0.00 0.00 0.00 74 1017.6
20260506140537 51 320 6.0 14.0 0.00 0.00 0.00 74 1017.3
20260506140047 51 11 6.0 14.0 0.00 0.00 0.00 74 1017.3
20260506135539 51 360 5.0 15.0 0.00 0.00 0.00 74 1017.3
20260506135039 51 360 5.0 15.0 0.00 0.00 0.00 74 1017.3
20260506134544 51 360 4.0 12.0 0.00 0.00 0.00 73 1017.2
20260506134040 51 344 4.0 12.0 0.00 0.00 0.00 74 1017.0
20260506133538 51 28 6.0 12.0 0.00 0.00 0.00 73 1017.0
20260506133057 51 321 6.0 14.0 0.00 0.00 0.00 74 1016.9
20260506132540 51 5 5.0 14.0 0.00 0.00 0.00 74 1017.1
20260506132037 51 360 6.0 14.0 0.00 0.00 0.00 73 1017.3
20260506131549 51 32 4.0 13.0 0.00 0.00 0.00 73 1017.2
20260506131040 51 352 3.0 13.0 0.00 0.00 0.00 73 1017.2
20260506130540 51 314 3.0 14.0 0.00 0.00 0.00 73 1017.3
20260506130051 51 341 5.0 14.0 0.00 0.00 0.00 73 1017.2
20260506125541 51 53 3.0 13.0 0.00 0.00 0.00 73 1017.1
20260506125041 51 39 3.0 12.0 0.00 0.00 0.00 73 1017.0
20260506124551 51 352 6.0 12.0 0.00 0.00 0.00 72 1017.0
20260506124043 51 15 5.0 11.0 0.00 0.00 0.00 72 1016.9
20260506123536 51 308 4.0 10.0 0.00 0.00 0.00 72 1017.0
20260506123048 51 348 4.0 10.0 0.00 0.00 0.00 72 1017.0
20260506122540 51 60 4.0 12.0 0.00 0.00 0.00 73 1017.3
20260506122041 51 348 5.0 12.0 0.00 0.00 0.00 72 1017.1
20260506121545 51 283 5.0 12.0 0.00 0.00 0.00 73 1016.9
20260506121040 50 55 5.0 12.0 0.00 0.00 0.00 73 1016.8
20260506120540 51 61 5.0 12.0 0.00 0.00 0.00 73 1016.6
20260506120045 51 324 5.0 13.0 0.00 0.00 0.00 73 1016.4
20260506115543 51 352 4.0 17.0 0.00 0.00 0.00 73 1016.5
20260506115039 51 340 7.0 17.0 0.00 0.00 0.00 73 1016.2
20260506114540 51 333 7.0 14.0 0.00 0.00 0.00 72 1016.0
20260506114039 51 352 5.0 13.0 0.00 0.00 0.00 72 1016.0
20260506113539 51 11 6.0 13.0 0.00 0.00 0.00 72 1015.9
20260506113047 51 325 4.0 18.0 0.00 0.00 0.00 72 1015.8
20260506112540 51 352 7.0 18.0 0.00 0.00 0.00 71 1015.7
20260506112043 51 360 5.0 12.0 0.00 0.00 0.00 72 1015.6
20260506111546 51 338 6.0 14.0 0.00 0.00 0.00 72 1015.6
20260506111039 51 352 7.0 14.0 0.00 0.00 0.00 73 1015.4
20260506110539 51 342 7.0 14.0 0.00 0.00 0.00 73 1015.3
20260506110048 51 331 7.0 14.0 0.00 0.00 0.00 73 1015.2
20260506105542 51 344 7.0 14.0 0.00 0.00 0.00 74 1015.1
20260506105043 51 346 8.0 15.0 0.00 0.00 0.00 73 1015.0
20260506104557 51 317 6.0 16.0 0.00 0.00 0.00 74 1015.0
20260506104039 51 316 7.0 17.0 0.00 0.00 0.00 74 1015.0
20260506103540 51 360 7.0 17.0 0.00 0.00 0.00 74 1015.1
20260506103044 51 336 7.0 15.0 0.00 0.00 0.00 74 1015.0
20260506102542 51 332 5.0 14.0 0.00 0.00 0.00 74 1015.1
20260506102041 51 15 7.0 17.0 0.00 0.00 0.00 74 1015.1
20260506101545 51 348 7.0 11.0 0.00 0.00 0.00 74 1015.1
20260506101043 51 7.0 12.0 0.00 0.00 0.00 75 1014.9
20260506100539 51 309 7.0 12.0 0.00 0.00 0.00 75 1014.4
20260506100059 51 340 6.0 11.0 0.00 0.00 0.00 75 1014.4
20260506095539 51 5 5.0 11.0 0.00 0.00 0.00 76 1014.3
20260506095042 51 331 4.0 10.0 0.00 0.00 0.00 77 1014.3
20260506094558 51 334 5.0 10.0 0.00 0.00 0.00 76 1014.1
20260506094039 51 329 3.0 13.0 0.00 0.00 0.00 77 1014.0
20260506093539 51 341 3.0 13.0 0.00 0.00 0.00 77 1013.7
20260506093045 51 61 4.0 13.0 0.00 0.00 0.00 78 1013.7
20260506092540 51 336 4.0 12.0 0.00 0.00 0.00 78 1013.6
20260506092040 51 63 4.0 14.0 0.00 0.00 0.00 78 1013.5
20260506091548 50 340 2.0 14.0 0.00 0.00 0.00 79 1013.3
20260506091039 50 352 2.0 10.0 0.00 0.00 0.00 79 1013.0
20260506090537 50 339 3.0 10.0 0.00 0.00 0.00 80 1012.9
20260506090049 50 0 3.0 10.0 0.00 0.00 0.00 80 1012.9
20260506085539 50 352 3.0 11.0 0.00 0.00 0.00 80 1013.0
20260506085039 50 325 3.0 12.0 0.00 0.00 0.00 80 1012.8
20260506084557 50 340 6.0 12.0 0.00 0.00 0.00 80 1012.8
20260506084038 50 313 4.0 13.0 0.00 0.00 0.00 80 1012.8
20260506083538 50 315 5.0 13.0 0.00 0.00 0.00 81 1012.6
20260506083059 50 334 5.0 12.0 0.00 0.00 0.00 80 1012.6
20260506082540 50 309 4.0 16.0 0.00 0.00 0.00 81 1012.7
20260506082041 50 12 4.0 16.0 0.00 0.00 0.00 80 1012.7
20260506081550 50 352 5.0 14.0 0.00 0.00 0.00 81 1012.8
20260506081040 50 306 6.0 14.0 0.00 0.00 0.00 81 1012.8
20260506080537 50 311 7.0 14.0 0.00 0.00 0.00 81 1012.7
20260506073104 50 29 7.0 17.0 0.00 0.00 0.00 81 1012.7
20260506072543 50 350 3.0 15.0 0.00 0.00 0.00 81 1012.7
20260506072036 50 329 6.0 13.0 0.00 0.00 0.00 81 1012.2
20260506071544 50 352 4.0 14.0 0.00 0.00 0.00 81 1012.2
20260506071037 50 360 6.0 14.0 0.00 0.00 0.00 81 1012.8
20260506070537 50 11 4.0 13.0 0.00 0.00 0.00 81 1012.6
20260506062039 50 37 7.0 19.0 0.00 0.00 0.00 82 1012.6
20260506061552 50 344 6.0 19.0 0.00 0.00 0.00 82 1012.5
20260506061039 50 347 5.0 14.0 0.00 0.00 0.00 82 1012.4
20260506060539 50 5 6.0 14.0 0.00 0.00 0.00 82 1012.4
20260506051038 50 351 6.0 13.0 0.00 0.00 0.00 84 1013.0
20260506050538 50 330 7.0 12.0 0.00 0.00 0.00 84 1012.9
20260506045037 50 352 8.0 15.0 0.00 0.00 0.00 84 1012.7
20260506044551 50 344 8.0 15.0 0.00 0.00 0.00 84 1012.5
20260506044038 50 346 4.0 13.0 0.00 0.00 0.00 84 1012.6
20260506043537 50 322 7.0 13.0 0.00 0.00 0.00 84 1012.6